This is the latest recevied weather packets stored in our database for station/object OK2ZAW-19. If no packets are shown the sender has not sent any weather packets the latest 10 day(s).
| Time | Temp. | Humidity | Pressure | Rain* | Wind** | Luminosity | Snow |
|---|---|---|---|---|---|---|---|
| 1776937226 | 10° C | 46% | 1020.3 hPa | - | - | 337 W/m² | - |
| 1776936916 | 10° C | 50% | 1020.3 hPa | - | - | 338 W/m² | - |
| 1776936605 | 10° C | 50% | 1020.3 hPa | - | - | 337 W/m² | - |
| 1776936295 | 9.44° C | 50% | 1020.2 hPa | - | - | 337 W/m² | - |
| 1776935985 | 9.44° C | 51% | 1020.5 hPa | - | - | 337 W/m² | - |
| 1776935674 | 9.44° C | 52% | 1020.4 hPa | - | - | 337 W/m² | - |
| 1776935054 | 9.44° C | 54% | 1020.4 hPa | - | - | 336 W/m² | - |
| 1776934433 | 8.89° C | 62% | 1020.7 hPa | - | - | 336 W/m² | - |
| 1776934123 | 8.33° C | 61% | 1020.7 hPa | - | - | 338 W/m² | - |
| 1776933503 | 8.33° C | 70% | 1020.8 hPa | - | - | 337 W/m² | - |
| 1776932882 | 7.78° C | 72% | 1020.8 hPa | - | - | 337 W/m² | - |
| 1776932262 | 7.22° C | 74% | 1020.9 hPa | - | - | 338 W/m² | - |
| 1776931952 | 7.78° C | 75% | 1020.9 hPa | - | - | 337 W/m² | - |
| 1776931332 | 7.22° C | 76% | 1021 hPa | - | - | 337 W/m² | - |
| 1776931022 | 7.22° C | 80% | 1020.9 hPa | - | - | 337 W/m² | - |
| 1776930712 | 7.22° C | 81% | 1020.9 hPa | - | - | 337 W/m² | - |
| 1776930402 | 6.67° C | 81% | 1020.9 hPa | - | - | 338 W/m² | - |
| 1776930091 | 6.67° C | 84% | 1020.9 hPa | - | - | 338 W/m² | - |
| 1776929781 | 6.11° C | 82% | 1020.8 hPa | - | - | 338 W/m² | - |
| 1776929471 | 6.11° C | 81% | 1020.9 hPa | - | - | 338 W/m² | - |
| 1776929161 | 6.11° C | 79% | 1021.1 hPa | - | - | 337 W/m² | - |
| 1776928851 | 6.11° C | 77% | 1021.1 hPa | - | - | 338 W/m² | - |
| 1776928541 | 5.56° C | 76% | 1020.9 hPa | - | - | 338 W/m² | - |
| 1776928231 | 5.56° C | 77% | 1020.8 hPa | - | - | 338 W/m² | - |
| 1776927921 | 5.56° C | 78% | 1020.7 hPa | - | - | 338 W/m² | - |
* Rain since midnight (hover to see other rain measurements)
** Current wind speed in m/s (hover to see current wind gust speed)